ALCOMSAT 1 (43039 NORAD) Tracking and Keplerian Element Data

This shows tracking and keplerian element data for the satellite.

Feedback or suggestion? Click here.




ElementValue
Catalog43039
NameALCOMSAT 1
Epoch Orbit1030
Epoch Day268.82582403
Epoch Year2020
RAAN192.9352
Inclination0.0142
Eccentricity0.000201
Argument of Perigee356.5862
Mean Anonmoly87.1069
Mean Motion1.0027307
Decay Rate-2.07E-06
L11 43039U 17078A 20268.82582403 -.00000207 00000-0 00000+0 0 9991
L22 43039 0.0142 192.9352 0002010 356.5862 87.1069 1.00273070 10302

Live tracking and technical data element details for ALCOMSAT 1 (NORAD 43039). ALCOMSAT 1 can be tracked NOW for your location showing map with azimuth and elevation plus other details from your city location.

Track the satellite on the map from your city or location and see movement details for azimuth, elevation, latitude, longitude, range, height, and movement on the map or in text.







IsCatalogInMostPopularTable: catalog: 43039, numindb: 457
Update: records affected: 1



GetName: 43039 ALCOMSAT 1

Hit Count: updated at: Wed, 30 Sep 2020 08:37:15 GMT